Regional Weather Roundup
Issued by NWS

Home | Current Version | Previous Version | Graphics & Text | Print | Product List | Glossary Off
Versions: 1 2 3 4 5 6 7 8 9 10 11 12 13 14 15 16 17 18 19 20 21 22 23 24 25 26 27 28 29 30 31 32 33 34 35 36 37 38 39 40 41 42 43 44 45 46 47 48 49 50

000
ASUS43 KTOP 292108
RWRKS

WEATHER ROUNDUP FOR KANSAS
NATIONAL WEATHER SERVICE GOODLAND KS
400 PM CDT SAT AUG 29 2015

NOTE:  "FAIR" INDICATES FEW OR NO CLOUDS BELOW 12,000 FEET WITH NO
SIGNIFICANT WEATHER AND/OR OBSTRUCTIONS TO VISIBILITY.

KSZ001>006-013>018-027>032-041>047-292200-
NORTHWEST KANSAS

CITY           SKY/WX    TMP DP  RH WIND       PRES   REMARKS
GOODLAND       FAIR      90  42  18 SW9       30.13F
HAYS           FAIR      90  52  27 NE12      30.05F
HILL CITY      FAIR      91  54  28 E7        30.07F
RUSSELL        FAIR      85  57  38 NE13      30.04F
$$

KSZ061>065-074>080-084>089-292200-
SOUTHWEST KANSAS

CITY           SKY/WX    TMP DP  RH WIND       PRES   REMARKS
DODGE CITY     FAIR      85  53  33 NE14      30.09F
ELKHART          N/A     91  48  22 NE8         N/A
GARDEN CITY    FAIR      89  46  22 E7        30.10F
GREAT BEND     FAIR      88  55  33 NE13      30.04F
LIBERAL        FAIR      88  52  29 NE10G16   30.11F
PRATT          FAIR      82  55  39 NE12      30.05F
$$

KSZ066>073-081>083-090>101-292200-
SOUTHEAST KANSAS

CITY           SKY/WX    TMP DP  RH WIND       PRES   REMARKS
CHANUTE        CLOUDY    79  65  62 VRB5      30.00F
COFFEYVILLE    FAIR      80  67  64 N8        29.98F
HUTCHINSON     FAIR      79  63  57 NE8       30.04F
MEDICINE LODGE   N/A     86  64  47 N8        30.01F
NEWTON         CLOUDY    72  57  60 E7        30.07F
PARSONS        FAIR      82  67  60 NW6       30.00F
WICHITA INTL   CLOUDY    72  61  68 NE13      30.04F
WICHITA JABRA  CLOUDY    72  63  73 N8        30.04F
WICHITA MCCONL PTSUNNY   70  61  71 NE13      30.04F
$$

KSZ007>012-019>026-033>040-048>060-102>105-292200-
NORTHEAST KANSAS

CITY           SKY/WX    TMP DP  RH WIND       PRES   REMARKS
CONCORDIA      FAIR      74  63  68 CALM      30.06F
EMPORIA        CLOUDY    72  62  71 N6        30.03F
LAWRENCE       CLOUDY    74  66  76 NE5       30.01F
MANHATTAN      CLOUDY    73  64  73 N6        30.04F
MARYSVILLE     CLOUDY   N/A N/A N/A CALM      30.06F
OLATHE IND     CLOUDY    75  68  78 N9        30.01F
OLATHE EXE     CLOUDY    76  66  71 N5        30.00F
SALINA         CLOUDY    75  63  66 N6        30.05F
TOPEKA BILLARD CLOUDY    76  66  71 N6        30.02F
TOPEKA FORBES  CLOUDY    76  65  68 NE6       30.02F
$$



USA.gov is the U.S. government's official web portal to all federal, state and local government web resources and services.